Location: Aulnoy
(48.8410°N, 3.0967°E)
Time: 09:47:50
(UTC+00:00)

BREEZE-M DEB (TANK) - Pass Details

Date: 09 February 2023
Orbit: 328 x 16571 km, 49.5° (Epoch: 23 March)

Event Time Altitude Azimuth Distance (km) Brightness Sun altitude
Rises 18:05:15 0° 236° (SW) 10,376 10.1 -11.5°
Reaches altitude 10° 18:15:31 10° 235° (SW) 6,815 8.9 -13.2°
Maximum altitude 18:29:55 62° 160° (SSE) 1,209 3.9 -15.5°
Enters shadow 18:32:27 26° 88° (E) 1,457 3.8 -15.9°
